Regional Weather Roundup
Issued by NWS

Home | Current Version | Previous Version | Graphics & Text | Print | Product List | Glossary On
Versions: 1 2 3 4 5 6 7 8 9 10 11 12 13 14 15 16 17 18 19 20 21 22 23 24 25 26 27 28 29 30 31 32 33 34 35 36 37 38 39 40 41 42 43 44 45 46 47 48 49 50
581
ASUS43 KDMX 242103
RWRIA

WEATHER ROUNDUP FOR IOWA
NATIONAL WEATHER SERVICE DES MOINES IA
400 PM CDT TUE MAY 24 2016

NOTE: "FAIR" INDICATES FEW OR NO CLOUDS BELOW 12,000 FEET WITH NO
SIGNIFICANT WEATHER AND/OR OBSTRUCTIONS TO VISIBILITY.

* - THESE STATIONS ARE NOT NWS STATIONS...THUS NOT UNDER NWS
QUALITY CONTROL.  THEY ALSO DO NOT REPORT WEATHER SUCH
AS PRECIPITATION OR FOG.

IAZ001>003-012>014-020>022-031>034-043>046-242200-
   NORTHWEST IOWA

CITY           SKY/WX    TMP DP  RH WIND       PRES   REMARKS
CARROLL *      CLOUDY    77  66  69 MISG      29.90F
CHEROKEE *     SUNNY     80  67  63 W3        29.89S HX  82
DENISON *      SUNNY     79  64  61 CALM      29.88S HX  81
LE MARS *      SUNNY     81  64  57 CALM      29.89S HX  82
ORANGE CITY *  SUNNY     81  63  54 CALM      29.89S HX  82
SHELDON *      MOSUNNY   81  64  57 CALM      29.88S HX  82
SIOUX CITY     SUNNY     82  68  62 SE9       29.87S HX  85
SPENCER        SUNNY     80  59  48 SW3       29.90S HX  81
STORM LAKE *   SUNNY     79  61  53 VRB6      29.91S HX  80
$$

IAZ055>058-069>071-079>083-090>094-242200-
   SOUTHWEST IOWA

CITY           SKY/WX    TMP DP  RH WIND       PRES   REMARKS
ATLANTIC *     MOSUNNY   81  55  41 S10       29.91R HX  80
AUDUBON *        N/A     81  70  69 S5        29.93R HX  84
CLARINDA *       N/A     81  64  57 MISG      29.92F HX  82
COUNCIL BLFS * SUNNY     79  59  50 VRB5      29.90F HX  80
CRESTON *      CLOUDY    79  61  53 S13       29.93F HX  80
HARLAN  *        N/A    N/A N/A N/A MISG        N/A
LAMONI         CLOUDY    81  62  52 S8        29.92R HX  82
RED OAK *      MOSUNNY   81  61  50 S9        29.91F HX  81
SHENANDOAH *   MOSUNNY   81  63  54 CALM      29.91F HX  82
$$

IAZ047>049-059>061-072>074-084-242200-
   CENTRAL IOWA

CITY           SKY/WX    TMP DP  RH WIND       PRES   REMARKS
AMES           MOSUNNY   78  64  61 CALM      29.91S HX  80
ANKENY *       SUNNY     79  64  61 N5        29.90F HX  81
BOONE *        MOSUNNY   77  64  65 S5        29.91F
CHARITON *     PTSUNNY   82  59  44 S12       29.91F HX  82
DES MOINES     PTSUNNY   82  61  48 CALM      29.90F HX  83
GRINNELL*      MOSUNNY   82  61  47 W6        29.91F HX  83
KNOXVILLE *    MOSUNNY   82  59  44 S5G12     29.89F HX  82
MARSHALLTOWN   MOSUNNY   78  63  59 SE5       29.91S HX  80
NEWTON *       MOSUNNY   81  63  54 SW10      29.90F HX  82
PELLA *        MOSUNNY   84  59  43 SW3       29.91F HX  83
PERRY *          N/A     79  68  69 E8        29.91S HX  81
$$

IAZ004>006-015-016-023>025-035-036-242200-
   NORTH CENTRAL IOWA

CITY           SKY/WX    TMP DP  RH WIND       PRES   REMARKS
ALGONA *       MOSUNNY   82  61  47 SE10      29.91S HX  83
CLARION *      MOSUNNY   77  64  65 VRB5      29.92F
ESTHERVILLE    PTSUNNY   80  60  50 VRB3      29.90R HX  81
FORT DODGE *   PTSUNNY   79  63  57 SE3       29.92S HX  80
MASON CITY     MOSUNNY   78  65  63 S8        29.94R HX  80
FOREST CITY *    N/A     77  63  61 SE8       29.93S
WEBSTER CITY * MOSUNNY   79  64  61 S7G13     29.90S HX  81
IOWA FALLS *     N/A     79  61  53 SW3       29.93S HX  80
$$

IAZ007>011-017>019-026>030-037>042-050>054-066-242200-
   NORTHEAST IOWA

CITY           SKY/WX    TMP DP  RH WIND       PRES   REMARKS
CEDAR RAPIDS   CLOUDY    84  64  50 SW10G20   29.90F HX  85
CHARLES CITY * MOSUNNY   81  59  47 SE8       29.93R HX  81
CLINTON *      PTSUNNY   85  60  42 SW15      29.92S HX  85
DECORAH *      MOSUNNY   81  57  44 VRB5G13   29.91S HX  81
DUBUQUE        MOSUNNY   80  64  58 VRB3      29.94S HX  82
MONTICELLO *   CLOUDY    81  64  57 VRB5      29.92S HX  82
OELWEIN *      MOSUNNY   82  57  42 SW6G15    29.93S HX  82
WATERLOO       MOSUNNY   83  59  44 S13       29.90S HX  83
$$

IAZ064-065-067-068-078-242200-
   EAST CENTRAL IOWA

CITY           SKY/WX    TMP DP  RH WIND       PRES   REMARKS
DAVENPORT      MOSUNNY   87  57  35 S16G22    29.92S HX  86
IOWA CITY      PTSUNNY   83  62  49 S9        29.92S HX  84
MT. PLEASANT * MOSUNNY   86  64  48 S14       29.93R HX  87
MUSCATINE *    MOSUNNY   86  61  42 SW10G18   29.91S HX  86
QUAD CITIES    MOSUNNY   86  57  37 S10       29.90S HX  85
$$

IAZ062-063-075>077-085>089-095>099-242200-
   SOUTHEAST IOWA

CITY           SKY/WX    TMP DP  RH WIND       PRES   REMARKS
BURLINGTON     PTSUNNY   83  62  49 SW15      29.92S HX  84
FAIRFIELD *      N/A    N/A N/A N/A MISG        N/A
FORT MADISON * MOSUNNY   82  64  54 S10       29.94S HX  84
KEOKUK *       CLOUDY    82  66  57 S10       29.92F HX  85
OSKALOOSA *      N/A     84  59  42 SW6       29.92S HX  84
OTTUMWA        MOSUNNY   82  64  54 S7        29.91R HX  83
WASHINGTON *   MOSUNNY   84  66  54 SW15      29.93R HX  86
$$

ABBREVIATIONS USED IN REMARKS
   TC - TEMPERATURES IN CELSIUS
  WCI - WIND CHILL INDEX
   HX - HEAT INDEX
  VSB - VISIBILITY
$$





USA.gov is the U.S. government's official web portal to all federal, state and local government web resources and services.